Volver al catálogo

STARLINK-11302

ActivoComunicacionesVLEO
NORAD 61204·PAYLOAD·🇺🇸 United States

Lanzado Sep 20, 2024 desde Vandenberg Space Force Base

Loading…

Próximos Pases (próximas 24 horas)

TLE

ActualizadoSource: CelesTrak SupGP

Época: Sep 14, 2026, 21:18 UTC

1 61204C 24171E   26257.88798611 -.00068268  00000+0 -56215-3 0  2578
2 61204  53.1562 323.5449 0001218  70.5237 338.2465 15.69751856    18

Sigue STARLINK-11302 en tiempo real con AllMySat

Download on the App Store